Good Hope, IL

7:09 AM CST on December 11, 2016 (GMT -0600)
Macomb Municipal

Weather History for KMQB - February, 2014

Change the Weather History Date:

Wednesday, February 12, 2014

  Actual Average (KBRL) Record (KBRL)
Temperature  
Mean Temperature 8 °F -  
Max Temperature 23 °F 37 °F 70 °F (1990)
Min Temperature -6 °F 18 °F -21 °F (1899)
Degree Days  
Heating Degree Days 56    
Moisture  
Dew Point 4 °F    
Average Humidity 75    
Maximum Humidity 90    
Minimum Humidity 56    
Precipitation  
Precipitation 0.00 in - - ()
Sea Level Pressure  
Sea Level Pressure 30.17 in    
Wind  
Wind Speed 4 mph (SE)    
Max Wind Speed 12 mph    
Max Gust Speed -    
Visibility 10 miles    
Events      
Averages and records for this station are not official NWS values.
T = Trace of Precipitation, MM = Missing Value Source: NWS Daily Summary

Daily Weather History Graph

Daily Weather History Graph

Search for Another Location

Airport or City:

Trip Planner

Search our weather history database for the weather conditions in past years. The results will help you decide how hot, cold, wet, or windy it might be!

Date:

Astronomy

Feb. 12, 2014 Rise Set
Actual Time 7:00 AM CST 5:34 PM CST
Civil Twilight 6:31 AM CST 6:02 PM CST
Nautical Twilight 5:59 AM CST 6:34 PM CST
Astronomical Twilight 5:28 AM CST 7:06 PM CST
Moon 3:48 PM CST (2/12) 5:17 AM CST (2/12)
Length of Visible Light 11h 30m
Length of Day
10h 34m
Waxing Gibbous, 95% of the Moon is Illuminated
Feb 12
Waxing Gibbous
Feb 14
Full
Feb 22
Last Quarter
Mar 1
New
Mar 8
First Quarter

Hourly Weather History & Observations

Time (CST) Temp. Windchill Dew Point Humidity Pressure Visibility Wind Dir Wind Speed Gust Speed Precip Events Conditions
12:15 AM -3.1 °F - -6.9 °F 84% 30.35 in 10.0 mi Calm Calm - N/A   Clear
12:35 AM -5.4 °F - -10.3 °F 80% 30.35 in 10.0 mi Calm Calm - N/A   Clear
12:55 AM -2.7 °F -11.0 °F -6.7 °F 83% 30.34 in 10.0 mi SE 3.5 mph - N/A   Clear
1:15 AM -6.3 °F -21.9 °F -10.5 °F 82% 30.33 in 10.0 mi SE 8.1 mph - N/A   Clear
1:35 AM -4.2 °F -16.5 °F -7.8 °F 84% 30.32 in 10.0 mi SSE 5.8 mph - N/A   Clear
1:55 AM -1.7 °F - -5.8 °F 83% 30.31 in 10.0 mi Calm Calm - N/A   Clear
2:15 AM -0.6 °F -12.2 °F -4.9 °F 82% 30.31 in 10.0 mi SE 5.8 mph - N/A   Clear
2:35 AM -1.5 °F -13.3 °F -5.4 °F 83% 30.31 in 10.0 mi SE 5.8 mph - N/A   Clear
2:55 AM -2.6 °F -12.9 °F -6.2 °F 85% 30.29 in 10.0 mi SE 4.6 mph - N/A   Clear
3:15 AM -2.9 °F - -6.3 °F 85% 30.30 in 10.0 mi Calm Calm - N/A   Clear
3:35 AM -4.0 °F -19.0 °F -8.0 °F 83% 30.28 in 10.0 mi SE 8.1 mph - N/A   Scattered Clouds
3:55 AM -1.7 °F -9.7 °F -4.9 °F 86% 30.28 in 10.0 mi ESE 3.5 mph - N/A   Overcast
4:15 AM 1.0 °F -10.3 °F -3.1 °F 83% 30.27 in 10.0 mi SE 5.8 mph - N/A   Overcast
4:35 AM 1.2 °F -11.5 °F -2.7 °F 83% 30.26 in 10.0 mi SE 6.9 mph - N/A   Overcast
4:55 AM 2.5 °F - -1.8 °F 82% 30.27 in 10.0 mi Calm Calm - N/A   Overcast
5:15 AM 3.0 °F - -1.7 °F 81% 30.27 in 10.0 mi Calm Calm - N/A   Overcast
5:35 AM 2.8 °F - -1.5 °F 82% 30.26 in 10.0 mi Calm Calm - N/A   Overcast
5:55 AM 3.6 °F -3.8 °F -1.3 °F 80% 30.25 in 10.0 mi ESE 3.5 mph - N/A   Overcast
6:15 AM 3.9 °F -5.3 °F -0.9 °F 80% 30.25 in 10.0 mi ESE 4.6 mph - N/A   Overcast
6:35 AM 4.3 °F -2.9 °F -0.4 °F 81% 30.24 in 10.0 mi ESE 3.5 mph - N/A   Overcast
6:55 AM 4.8 °F -2.3 °F -0.4 °F 79% 30.25 in 10.0 mi ESE 3.5 mph - N/A   Overcast
7:15 AM 5.0 °F -4.1 °F -0.2 °F 79% 30.24 in 10.0 mi SSE 4.6 mph - N/A   Overcast
7:35 AM 5.5 °F -3.4 °F 0.5 °F 80% 30.25 in 10.0 mi SSE 4.6 mph - N/A   Overcast
7:55 AM 5.9 °F -1.1 °F 0.5 °F 78% 30.25 in 10.0 mi SSE 3.5 mph - N/A   Mostly Cloudy
8:15 AM 6.4 °F -3.9 °F 0.7 °F 77% 30.25 in 10.0 mi SSE 5.8 mph - N/A   Overcast
8:35 AM 6.8 °F -4.8 °F 1.4 °F 79% 30.24 in 10.0 mi SSE 6.9 mph - N/A   Overcast
8:55 AM 6.8 °F -4.8 °F 1.0 °F 77% 30.24 in 10.0 mi SSE 6.9 mph - N/A   Overcast
9:15 AM 7.3 °F -5.2 °F 1.4 °F 77% 30.23 in 10.0 mi SSE 8.1 mph - N/A   Overcast
9:35 AM 7.2 °F -5.4 °F 1.4 °F 77% 30.22 in 10.0 mi SSE 8.1 mph - N/A   Overcast
9:55 AM 7.5 °F -3.9 °F 1.9 °F 78% 30.22 in 10.0 mi SSE 6.9 mph - N/A   Mostly Cloudy
10:15 AM 8.6 °F -3.7 °F 2.7 °F 77% 30.22 in 10.0 mi SSE 8.1 mph - N/A   Scattered Clouds
10:35 AM 9.9 °F -1.1 °F 3.7 °F 76% 30.21 in 10.0 mi SSE 6.9 mph - N/A   Scattered Clouds
10:55 AM 11.1 °F 0.4 °F 4.6 °F 75% 30.21 in 10.0 mi SSE 6.9 mph - N/A   Scattered Clouds
11:15 AM 12.6 °F 0.2 °F 5.9 °F 75% 30.21 in 10.0 mi SSE 9.2 mph - N/A   Scattered Clouds
11:24 AM 14.0 °F 2.9 °F 6.8 °F 73% 30.21 in 10.0 mi SSE 8.1 mph - N/A   Scattered Clouds
11:35 AM 16.2 °F 5.5 °F 8.1 °F 70% 30.20 in 10.0 mi SSE 8.1 mph - N/A   Scattered Clouds
11:55 AM 17.6 °F 5.7 °F 8.6 °F 68% 30.18 in 10.0 mi SSE 10.4 mph - N/A   Clear
12:15 PM 19.4 °F 7.2 °F 9.0 °F 64% 30.17 in 10.0 mi SSE 11.5 mph - N/A   Clear
12:35 PM 20.1 °F 9.5 °F 10.2 °F 66% 30.16 in 10.0 mi SSE 9.2 mph - N/A   Clear
12:55 PM 21.2 °F 12.6 °F 10.8 °F 64% 30.14 in 10.0 mi SSE 6.9 mph - N/A   Clear
1:15 PM 21.7 °F 12.3 °F 10.4 °F 62% 30.13 in 10.0 mi SSE 8.1 mph - N/A   Clear
1:35 PM 22.1 °F 13.7 °F 11.1 °F 63% 30.11 in 10.0 mi SE 6.9 mph - N/A   Clear
1:55 PM 22.8 °F 15.5 °F 11.5 °F 62% 30.10 in 10.0 mi SE 5.8 mph - N/A   Clear
2:15 PM 22.1 °F 14.7 °F 11.1 °F 63% 30.09 in 10.0 mi SSE 5.8 mph - N/A   Clear
2:35 PM 22.6 °F 14.3 °F 11.7 °F 63% 30.09 in 10.0 mi SSE 6.9 mph - N/A   Clear
2:55 PM 23.7 °F 17.8 °F 12.4 °F 62% 30.08 in 10.0 mi SE 4.6 mph - N/A   Clear
3:15 PM 23.9 °F 16.8 °F 12.7 °F 62% 30.08 in 10.0 mi South 5.8 mph - N/A   Clear
3:35 PM 23.7 °F 16.6 °F 12.9 °F 63% 30.08 in 10.0 mi SSE 5.8 mph - N/A   Clear
3:55 PM 23.7 °F 17.8 °F 11.7 °F 60% 30.07 in 10.0 mi SSE 4.6 mph - N/A   Clear
4:15 PM 23.0 °F - 13.3 °F 66% 30.07 in 10.0 mi Calm Calm - N/A   Mostly Cloudy
4:35 PM 22.1 °F 15.9 °F 9.5 °F 58% 30.07 in 10.0 mi SE 4.6 mph - N/A   Mostly Cloudy
4:55 PM 19.6 °F - 10.9 °F 69% 30.07 in 10.0 mi Calm Calm - N/A   Mostly Cloudy
5:15 PM 22.6 °F - 9.0 °F 56% 30.08 in 10.0 mi Calm Calm - N/A   Overcast
5:35 PM 20.8 °F - 10.4 °F 64% 30.08 in 10.0 mi Calm Calm - N/A   Overcast
5:55 PM 19.4 °F - 10.9 °F 70% 30.08 in 10.0 mi Calm Calm - N/A   Mostly Cloudy
6:15 PM 21.6 °F - 9.9 °F 61% 30.09 in 10.0 mi Calm Calm - N/A   Overcast
6:35 PM 21.6 °F - 10.9 °F 64% 30.09 in 10.0 mi Calm Calm - N/A   Overcast
6:55 PM 20.1 °F - 14.9 °F 80% 30.08 in 10.0 mi Calm Calm - N/A   Overcast
7:15 PM 19.8 °F 13.2 °F 14.2 °F 79% 30.07 in 10.0 mi ESE 4.6 mph - N/A   Overcast
7:35 PM 18.5 °F 11.7 °F 11.1 °F 73% 30.06 in 10.0 mi SE 4.6 mph - N/A   Mostly Cloudy
7:55 PM 18.1 °F 10.0 °F 9.1 °F 68% 30.05 in 10.0 mi SE 5.8 mph - N/A   Clear
8:15 PM 19.2 °F 11.3 °F 9.0 °F 64% 30.05 in 10.0 mi ESE 5.8 mph - N/A   Clear
8:35 PM 12.9 °F 2.6 °F 6.8 °F 77% 30.03 in 10.0 mi ESE 6.9 mph - N/A   Clear
8:55 PM 14.5 °F - 7.7 °F 74% 30.03 in 10.0 mi Calm Calm - N/A   Clear
9:15 PM 13.3 °F - 7.0 °F 76% 30.04 in 10.0 mi Calm Calm - N/A   Clear
9:35 PM 13.5 °F - 7.2 °F 76% 30.04 in 10.0 mi Calm Calm - N/A   Clear
9:55 PM 14.4 °F - 8.2 °F 77% 30.04 in 10.0 mi Calm Calm - N/A   Clear
10:15 PM 12.7 °F - 7.9 °F 81% 30.05 in 10.0 mi Calm Calm - N/A   Clear
10:35 PM 11.7 °F - 7.2 °F 82% 30.05 in 10.0 mi Calm Calm - N/A   Clear
10:55 PM 8.4 °F - 3.7 °F 81% 30.04 in 10.0 mi Calm Calm - N/A   Clear
11:15 PM 4.5 °F - 1.6 °F 88% 30.04 in 10.0 mi Calm Calm - N/A   Clear
11:35 PM 7.7 °F 1.0 °F 5.0 °F 89% 30.02 in 10.0 mi ESE 3.5 mph - N/A   Clear
11:55 PM 6.4 °F -0.5 °F 4.1 °F 90% 30.02 in 10.0 mi SE 3.5 mph - N/A   Clear